Weather History for Douglas Bisbee, AZ

Change the Weather History Date:

Friday, January 4, 2013

  Actual Average Record
Temperature  
Mean Temperature 35 °F 46 °F  
Max Temperature 45 °F 62 °F 74 °F (1994)
Min Temperature 25 °F 29 °F 6 °F (1949)
Degree Days  
Heating Degree Days 30 19  
Month to date heating degree days 121 78  
Since 1 July heating degree days 1005 1102  
Cooling Degree Days 0 0  
Month to date cooling degree days 0 0  
Year to date cooling degree days 0 0  
Moisture  
Dew Point 26 °F    
Average Humidity 73    
Maximum Humidity 92    
Minimum Humidity 53    
Precipitation  
Precipitation 0.00 in 0.02 in 0.78 in (1989)
Month to date precipitation T 0.09  
Year to date precipitation T 0.09  
Snow  
Snow 0.00 in - - ()
Month to date snowfall 0.0  
Snow Depth 0.00 in    
Sea Level Pressure  
Sea Level Pressure 30.25 in    
Wind  
Wind Speed 6 mph (ENE)    
Max Wind Speed 14 mph    
Max Gust Speed 17 mph    
Visibility 10 miles    
Events      
T = Trace of Precipitation, MM = Missing Value Source: NWS Daily Summary

Daily Weather History Graph

Daily Weather History Graph

Search for Another Location

Airport:

Trip Planner

Search our weather history database for the weather conditions in past years. The results will help you decide how hot, cold, wet, or windy it might be!

Date:

Astronomy

Jan. 04, 2013 Rise Set
Actual Time 7:18 AM MST 5:28 PM MST
Civil Twilight 6:51 AM MST 5:55 PM MST
Nautical Twilight 6:21 AM MST 6:25 PM MST
Astronomical Twilight 5:51 AM MST 6:55 PM MST
Moon No Moon Rise 11:32 AM MST (1/4)
Length of Visible Light 11h 03m
Length of Day
10h 10m
Waning Gibbous, 54% of the Moon is Illuminated
Jan 4
Waning Gibbous
Jan 4
Last Quarter
Jan 11
New
Jan 18
First Quarter
Jan 26
Full

Hourly Weather History & Observations

Time (MST) Temp. Windchill Dew Point Humidity Pressure Visibility Wind Dir Wind Speed Gust Speed Precip Events Conditions
12:56 AM 33.1 °F 26.1 °F 25.0 °F 72% 30.21 in 10.0 mi East 8.1 mph - N/A   Overcast
1:56 AM 32.0 °F 23.6 °F 25.0 °F 75% 30.23 in 10.0 mi East 10.4 mph - N/A   Overcast
2:56 AM 30.9 °F 27.5 °F 25.0 °F 79% 30.23 in 10.0 mi East 3.5 mph - N/A   Overcast
3:56 AM 30.0 °F - 24.1 °F 79% 30.24 in 10.0 mi Calm Calm - N/A   Mostly Cloudy
4:56 AM 27.0 °F 19.5 °F 25.0 °F 92% 30.25 in 10.0 mi NNE 6.9 mph - N/A   Mostly Cloudy
5:56 AM 25.0 °F 19.3 °F 23.0 °F 92% 30.28 in 10.0 mi West 4.6 mph - N/A   Mostly Cloudy
6:56 AM 26.1 °F 20.5 °F 24.1 °F 92% 30.28 in 10.0 mi NNW 4.6 mph - N/A   Mostly Cloudy
7:56 AM 27.0 °F 23.0 °F 25.0 °F 92% 30.29 in 10.0 mi North 3.5 mph - N/A   Partly Cloudy
8:56 AM 32.0 °F 27.5 °F 27.0 °F 82% 30.30 in 10.0 mi NNE 4.6 mph - N/A   Mostly Cloudy
9:56 AM 34.0 °F 28.8 °F 26.1 °F 73% 30.32 in 10.0 mi North 5.8 mph - N/A   Overcast
10:56 AM 37.0 °F - 26.1 °F 65% 30.29 in 10.0 mi North - - N/A   Clear
11:56 AM 41.0 °F 37.1 °F 27.0 °F 57% 30.25 in 10.0 mi SE 5.8 mph - N/A   Partly Cloudy
12:56 PM 43.0 °F 39.5 °F 28.0 °F 56% 30.21 in 10.0 mi SE 5.8 mph - N/A   Partly Cloudy
1:56 PM 44.1 °F 40.1 °F 28.0 °F 53% 30.19 in 10.0 mi SE 6.9 mph - N/A   Scattered Clouds
2:56 PM 44.1 °F 41.5 °F 28.0 °F 53% 30.19 in 10.0 mi ESE 4.6 mph - N/A   Partly Cloudy
3:56 PM 45.0 °F 41.2 °F 28.9 °F 53% 30.19 in 10.0 mi ESE 6.9 mph - N/A   Partly Cloudy
4:56 PM 44.1 °F 41.5 °F 28.9 °F 55% 30.21 in 10.0 mi ESE 4.6 mph - N/A   Clear
5:56 PM 37.9 °F 33.5 °F 28.0 °F 68% 30.24 in 10.0 mi SE 5.8 mph - N/A   Clear
6:56 PM 36.0 °F 30.3 °F 28.0 °F 73% 30.27 in 10.0 mi East 6.9 mph - N/A   Clear
7:56 PM 34.0 °F 28.8 °F 28.0 °F 79% 30.28 in 10.0 mi East 5.8 mph - N/A   Clear
8:56 PM 32.0 °F 26.4 °F 27.0 °F 82% 30.28 in 10.0 mi East 5.8 mph - N/A   Clear
9:56 PM 28.9 °F - 26.1 °F 89% 30.29 in 10.0 mi Calm Calm - N/A   Clear
10:56 PM 28.0 °F 20.8 °F 25.0 °F 88% 30.29 in 10.0 mi NW 6.9 mph - N/A   Clear
11:56 PM 27.0 °F 18.0 °F 24.1 °F 89% 30.29 in 10.0 mi NW 9.2 mph - N/A   Clear